Location: Chatou
(48.8898°N, 2.1586°E)
Time: 17:22:24
(UTC+00:00)

Cosmos 1408 - Pass Details

Date: 03 February 2023
Orbit: 432 x 463 km, 82.6° (Epoch: 29 March)

Event Time Altitude Azimuth Distance (km) Brightness Sun altitude
Rises 17:41:16 0° 183° (S) 2,406 6.4 -8.5°
Reaches altitude 10° 17:43:18 10° 182° (S) 1,548 5.3 -8.8°
Maximum altitude 17:46:39 72° 97° (E) 471 2.3 -9.3°
Drops below altitude 10° 17:50:05 10° 13° (NNE) 1,585 4.9 -9.9°
Sets 17:52:11 0° 12° (NNE) 2,470 5.9 -10.2°
